Back to catalog

STARLINK-11294

AliveCommunicationsVLEO
NORAD 61054·PAYLOAD·🇺🇸 United States

Launched Sep 13, 2024 from Vandenberg Space Force Base

Loading…

Next Passes (next 24 hours)

TLE

FreshSource: CelesTrak SupGP

Epoch: Sep 14, 2026, 21:24 UTC

1 61054C 24164E   26257.89215278 -.00035587  00000+0 -29319-3 0  2570
2 61054  53.1567  98.3607 0001096  79.0612  83.4161 15.69723451    16

Track STARLINK-11294 in real time with AllMySat

Download on the App Store